Location: Wayah Bald
(35.1806°N, 83.5603°W)
Time: 07:04:09
(UTC-04:00)

Daily predictions for brighter satellites

Satellite Brightness Start Highest point End
(mag) Time Altitude Azimuth Time Altitude Azimuth Time Altitude Azimuth
Cosmos 1802 Rocket 4.3 21:00:40 10° S 21:06:58 79° W 21:13:24 10° N
Cosmos 1536 3.9 21:05:15 10° NNW 21:09:12 48° W 21:13:06 10° SSW
Cosmos 2360 4.3 21:03:31 10° NNW 21:09:14 72° ENE 21:14:55 10° SSE
BREEZE-M R/B 4.3 21:03:19 10° WSW 21:09:19 48° NW 21:12:32 10° NE
Thor Agena Rocket 3.6 21:07:23 10° NNE 21:12:39 74° ESE 21:17:49 10° S
Cosmos 2084 3.7 21:09:16 10° SSW 21:13:31 47° ESE 21:17:32 10° NE
Atlas Centaur 2 1.9 21:12:13 10° WSW 21:16:04 38° S 21:19:24 10° ESE
Cosmos 1697 Rocket 3.5 21:12:31 10° NNW 21:18:00 51° WSW 21:23:25 10° S
Cosmos 2233 Rocket 4.3 21:12:40 10° SSE 21:18:27 45° E 21:24:18 10° NNE
SJ-6B 3.6 21:17:18 10° S 21:20:55 49° W 21:24:34 10° NNW
Cosmos 1500 3.4 21:18:03 10° N 21:21:56 78° W 21:25:46 10° S
Cosmos 1975 3.6 21:19:31 10° NNE 21:23:14 35° E 21:26:50 10° SE
Resurs 01 Rocket 1.7 21:22:18 10° SSE 21:26:38 63° ENE 21:31:00 10° N
Spot 2 Rocket 3.8 21:22:42 10° SE 21:27:32 48° ENE 21:32:22 10° N
OAO 1 Rocket 4.4 21:22:12 10° W 21:27:32 86° S 21:32:54 10° E
Cosmos 2360 Rocket 4.2 21:25:44 10° NNE 21:28:29 14° NE 21:31:13 10° E
deb Kosmos-1763 4.1 21:25:25 10° S 21:29:03 60° ESE 21:32:42 10° NNE
Cosmos 468 Rocket 4.0 21:25:15 10° S 21:30:30 71° ESE 21:35:44 10° NNE
Cosmos 1980 Rocket 2.4 21:26:07 10° NNW 21:31:46 72° WSW 21:37:24 10° SSE
ERS-2 2.1 21:29:56 10° SSE 21:33:37 88° ENE 21:37:19 10° NNW
ATLAS CENTAUR R/B 2.4 21:29:35 10° NW 21:34:06 53° WSW 21:38:47 10° SSE
BREEZE-M DEB (TANK) 1.8 21:32:00 10° NW 21:34:54 45° NNE 21:36:08 18° ESE
Cosmos 1300 Rocket 4.3 21:30:57 10° NNW 21:35:12 53° W 21:39:23 10° S
Cosmos 1666 3.2 21:32:51 10° N 21:36:33 42° E 21:39:28 15° SSE
Cosmos 1763 Rocket 3.7 21:31:37 10° S 21:36:41 48° ESE 21:41:46 10° NNE
Cosmos 841 Rocket 4.1 21:37:35 10° SSE 21:42:19 36° E 21:47:06 10° NE
SJ-11-01 4.3 21:40:54 10° SSE 21:45:37 85° WSW 21:50:23 10° NNW
EPKM 3.6 21:41:21 10° WSW 21:46:55 24° SSW 21:48:26 18° SSE
Delta 7925 Rocket 4.3 21:42:57 10° WSW 21:46:59 27° S 21:49:12 19° SE
Cosmos 1743 2.8 21:45:20 10° N 21:49:06 57° E 21:51:39 19° SSE
GPS 2-05 Rocket1 3.8 21:48:04 10° SSW 21:50:52 25° SSE 21:51:15 25° SE
Iridium 2 4.0 21:49:32 17° SSE 21:52:09 47° E 21:55:50 10° NNE
GPS 2-04 Rocket1 3.9 21:49:56 10° W 21:53:41 32° SSW 21:55:49 20° SSE
USA 234 3.5 21:52:32 10° NE 21:59:06 76° NW 22:05:39 10° SW
Centaur D-1A AC-31 2.1 21:53:07 10° W 21:59:12 32° SSW 22:00:42 23° SSE
Timation 2 Rocket 4.4 21:55:47 10° SW 22:01:39 62° WNW 22:07:40 10° NNE
Cosmos 1833 4.4 21:57:07 10° S 22:02:38 49° ESE 22:08:05 10° NNE
Meteor 2-4 Rocket 3.7 21:58:24 12° S 22:03:23 58° E 22:08:50 10° NNE
NOSS 3-2 (C) 4.4 21:58:22 10° SW 22:04:01 51° NW 22:10:17 10° NNE
Lacrosse 5 rocket 3.7 22:02:29 10° N 22:04:49 14° NNE 22:07:05 10° ENE
Cosmos 1464 Rocket 4.3 22:05:11 18° SSE 22:09:43 50° E 22:15:50 10° NNE
ERS-1 Rocket 3.8 22:07:46 24° ESE 22:09:50 34° ENE 22:14:20 10° N
USA 245 4.3 22:16:24 26° E 22:16:50 27° ENE 22:20:17 10° N
Cosmos 1356 3.7 22:17:03 45° ESE 22:17:20 46° E 22:20:41 10° NNE
Cosmos 1515 4.2 22:17:00 37° ESE 22:17:23 38° E 22:20:58 10° NNE
ARGOS 3.1 22:15:18 26° SSE 22:18:21 69° ENE 22:23:44 10° N
Cosmos 1898 Rocket 3.7 22:14:11 10° NNW 22:19:29 72° WSW 22:22:49 23° S
Cosmos 1814 Rocket 4.3 22:15:09 10° SSW 22:20:21 68° WNW 22:25:39 10° NNE
H-2A R/B 2.1 22:19:42 32° SE 22:21:47 57° ENE 22:26:42 10° N
Tiangong 2 3.6 22:19:52 10° WNW 22:22:21 21° N 22:24:50 10° NE
Cosmos 2322 Rocket 2.1 22:17:44 10° NNW 22:23:22 88° WSW 22:26:18 30° SSE
CENTAUR R/B 2.5 22:17:47 10° SSW 22:23:35 83° WNW 22:30:15 10° NNE
Cosmos 1455 Rocket 3.1 22:21:37 10° N 22:25:56 63° E 22:27:13 42° SE
Cosmos 1340 Rocket 2.7 22:25:14 30° S 22:27:09 87° E 22:31:14 10° N
Cosmos 292 Rocket 3.8 22:24:28 10° SSW 22:29:14 79° WNW 22:34:00 10° NNE
SL-16 R/B 2.4 22:27:10 10° NNW 22:32:49 69° WSW 22:35:43 29° S
Cosmos 990 Rocket 4.1 22:30:08 10° NNW 22:35:21 72° WSW 22:37:44 33° S
Shenzhou-11 Module 3.5 22:33:05 10° NW 22:35:45 29° NNE 22:36:03 28° NNE
Cosmos 1242 Rocket 4.4 22:38:30 10° NNW 22:41:36 27° W 22:43:20 18° SW
DMSP B5D2-2 4.0 22:36:39 10° NNE 22:41:54 63° E 22:43:34 42° SSE
Helios 1A 3.5 22:41:57 42° E 22:42:06 42° ENE 22:46:03 10° N
Aureole 2 Rocket 3.1 22:41:07 10° NNW 22:43:07 40° N 22:43:07 40° N
Cosmos 836 Rocket 4.4 22:43:05 45° SSE 22:44:26 61° ESE 22:49:34 10° NNE
Meteor 2-20 Rocket 4.4 22:40:43 10° N 22:46:53 89° ESE 22:49:36 36° S
MetOp-B 4.2 22:44:58 36° S 22:47:13 75° WSW 22:52:35 10° NNW
Cosmos 2219 4.2 22:48:54 29° E 22:48:54 29° E 22:53:03 10° NE
Okean 2 3.8 22:50:55 47° ENE 22:50:55 47° ENE 22:54:27 10° NNE
Cosmos 1544 Rocket 4.0 22:48:54 10° NNW 22:53:16 60° W 22:54:28 43° SSW
Meteor 1-15 Rocket 4.2 22:50:25 10° N 22:56:07 69° E 22:57:22 52° SE
Cosmos 2150 Rocket 4.2 22:51:59 10° NNW 22:57:18 65° WSW 22:58:51 44° SSW
CZ-4C R/B 4.0 22:53:20 10° NNW 22:59:52 34° NE 23:03:19 24° E
SL-08 RB Rocket 4.2 22:58:55 41° SSW 23:00:04 53° W 23:04:32 10° NNW
Cosmos 1356 Rocket 3.9 23:03:26 49° NE 23:03:26 49° NE 23:06:54 10° NNE
Atlas Centaur 2 3.7 23:01:44 10° WSW 23:02:01 11° WSW 23:02:01 11° WSW
SJ 16-02 1.5 23:01:07 10° N 23:05:18 60° NE 23:05:18 60° NE
Cosmos 1536 Rocket 4.2 23:05:18 37° SW 23:06:37 51° W 23:10:58 10° N
Cosmos 540 Rocket 4.1 23:06:54 21° SW 23:10:13 54° WNW 23:15:18 10° N
Cosmos 2360 Rocket 2.1 23:07:28 10° NNW 23:13:07 80° WSW 23:14:04 62° S
OAO 1 Rocket 4.3 23:07:56 10° W 23:13:16 80° S 23:13:32 77° SSE
Helios 1B rocket 2.6 23:10:21 10° NNE 23:13:58 67° N 23:13:58 67° N
Landsat 7 3.7 23:14:41 72° ENE 23:14:41 72° ENE 23:19:23 10° N
CZ-2C R/B 3.8 23:10:57 10° NE 23:14:47 29° ENE 23:14:47 29° ENE
Cosmos 2219 Rocket 3.3 23:12:15 10° N 23:17:07 30° ENE 23:17:36 29° ENE
Cosmos 1092 Rocket 4.1 23:13:47 10° N 23:20:01 57° E 23:20:43 54° ESE
IGS 5A 4.2 23:21:30 47° NNE 23:21:30 47° NNE 23:24:42 10° N
Nadezhda 4 Rocket 3.9 23:16:17 10° N 23:22:37 89° ENE 23:23:53 61° S
SPOT 5 3.1 23:28:41 56° W 23:28:41 56° W 23:32:53 10° NNW
SL-19 R/B 4.3 23:30:46 69° SSE 23:31:35 86° ENE 23:38:04 10° NNW
Terra 2.0 23:34:00 64° NNE 23:34:00 64° NNE 23:38:09 10° N
CARTOSAT-1 4.2 23:39:20 53° NNW 23:39:20 53° NNW 23:42:40 10° NNW
Cosmos 372 Rocket 4.1 23:34:11 10° NNW 23:39:00 68° W 23:39:00 68° W
Cosmos 2333 Rocket 2.9 23:34:15 10° N 23:39:38 41° ENE 23:39:38 41° ENE
CZ-2C R/B 3.3 23:41:20 63° NE 23:41:20 63° NE 23:46:32 10° N
COSMOS 2428 2.7 23:37:05 10° NNW 23:42:36 72° NE 23:42:36 72° NE
Lacrosse 5 rocket 2.7 23:40:23 10° NW 23:43:05 38° NW 23:43:05 38° NW
BREEZE M DEB (TANK) 4.2 23:44:35 10° WNW 23:47:56 25° W 23:47:56 25° W
Cosmos 2026 Rocket 4.1 23:43:30 10° N 23:49:21 60° ENE 23:49:21 60° ENE
Cosmos 2279 Rocket 4.3 23:50:11 51° ENE 23:50:11 51° ENE 23:55:39 10° NNE
Cosmos 1025 Rocket 4.4 23:51:30 35° WNW 23:51:30 35° WNW 23:55:14 10° NNW
